This is the latest recevied weather packets stored in our database for station/object VK5FR. If no packets are shown the sender has not sent any weather packets the latest 10 day(s).
| Time | Temp. | Humidity | Pressure | Rain* | Wind** | Luminosity | Snow |
|---|---|---|---|---|---|---|---|
| 1777451564 | 23.33° C | 42% | 1020.4 hPa | 0 mm | - | - | - |
| 1777451260 | 23.89° C | 39% | 1020.6 hPa | 0 mm | - | - | - |
| 1777450956 | 23.89° C | 39% | 1020.4 hPa | 0 mm | - | - | - |
| 1777450652 | 23.89° C | 39% | 1020.4 hPa | 0 mm | - | - | - |
| 1777450348 | 23.89° C | 40% | 1020.5 hPa | 0 mm | - | - | - |
| 1777450045 | 23.33° C | 42% | 1020.5 hPa | 0 mm | - | - | - |
| 1777449740 | 21.11° C | 51% | 1020.6 hPa | 0 mm | - | - | - |
| 1777449437 | 22.22° C | 73% | 1020.2 hPa | 0 mm | - | - | - |
| 1777449133 | 22.22° C | 73% | 1020.6 hPa | 0 mm | - | - | - |
| 1777448829 | 21.67° C | 68% | 1020.4 hPa | 0 mm | - | - | - |
| 1777448526 | 21.67° C | 73% | 1020.5 hPa | 0 mm | - | - | - |
| 1777448222 | 21.67° C | 73% | 1020.3 hPa | 0 mm | - | - | - |
| 1777447918 | 22.22° C | 75% | 1020.4 hPa | 0 mm | - | - | - |
| 1777447614 | 22.22° C | 75% | 1020.2 hPa | 0 mm | - | - | - |
| 1777447310 | 21.67° C | 74% | 1020.4 hPa | 0 mm | - | - | - |
| 1777447009 | 21.67° C | 74% | 1020.2 hPa | 0 mm | - | - | - |
| 1777446706 | 21.67° C | 74% | 1020.3 hPa | 0 mm | - | - | - |
| 1777446401 | 22.22° C | 73% | 1020.1 hPa | 0 mm | - | - | - |
| 1777446098 | 22.22° C | 72% | 1020.3 hPa | 0 mm | - | - | - |
| 1777445795 | 22.22° C | 71% | 1020 hPa | 0 mm | - | - | - |
| 1777445490 | 22.22° C | 70% | 1020 hPa | 0 mm | - | - | - |
| 1777445187 | 22.22° C | 67% | 1020 hPa | 0 mm | - | - | - |
| 1777444884 | 22.78° C | 59% | 1020 hPa | 0 mm | - | - | - |
| 1777444579 | 23.33° C | 56% | 1020.1 hPa | 0 mm | - | - | - |
| 1777444277 | 24.44° C | 48% | 1020 hPa | 0 mm | - | - | - |
* Rain latest hour (hover to see other rain measurements)
** Current wind speed in m/s (hover to see current wind gust speed)